Regional Weather Roundup
Issued by NWS Nashville, TN

Home | Current Version | Previous Version | Text Only | Print | Product List | Glossary On
Versions: 1 2 3 4 5 6 7 8 9 10 11 12 13 14 15 16 17 18 19 20 21 22 23 24 25 26 27 28 29 30 31 32 33 34 35 36 37 38 39 40 41 42 43 44 45 46 47 48 49 50
000
ASUS44 KOHX 260610
RWROHX
MIDDLE TENNESSEE HOURLY WEATHER ROUNDUP
NATIONAL WEATHER SERVICE NASHVILLE TN
100 AM CDT TUE MAY 26 2015

NOTE: "FAIR" INDICATES FEW OR NO CLOUDS BELOW 12,000 FEET WITH
NO SIGNIFICANT WEATHER AND/OR OBSTRUCTIONS TO VISIBILITY.

* THESE REPORTS ARE NOT UNDER NWS QUALITY CONTROL AND MAY NOT
  REPORT WEATHER SUCH AS PRECIPITATION AND FOG.


TNZ005>011-023>034-057-059-062>066-078-080-260700
...NORTHERN MIDDLE TENNESSEE...

CITY           SKY/WX    TMP DP  RH WIND       PRES   REMARKS
CASTALIAN SPRG   N/A     64  64 100 CALM      30.14S
CLARKSVILLE    MOCLDY    67  66  97 SE5       30.07S
CROSSVILLE     CLOUDY    67  63  87 S8        30.21F
GLADEVILLE*      N/A     66  64  94 S2        30.07S
JOELTON*         N/A     66  64  94 CALM      30.03S
MOUNT JULIET*    N/A     66  66 100 CALM      29.96S
NASHVILLE      MOCLDY    67  64  90 SE6       30.11F
OLD HICKORY*     N/A     68  66  94 CALM      29.74S
PORTLAND       PTCLDY    64  64 100 SE7       30.11S
ROCKWOOD       CLOUDY    65  64  96 CALM      30.21
SMYRNA         PTCLDY    66  65  97 S5        30.13S
SPARTA         CLEAR     66  64  94 S5        30.15F
$$
TNZ056-058-060-061-075>077-079-093>097-260700
...SOUTHERN MIDDLE TENNESSEE...

CITY           SKY/WX    TMP DP  RH WIND       PRES   REMARKS
COLUMBIA       CLEAR     66  64  94 S6        30.09F
LEWISBURG      PTCLDY    66  63  90 SE3       30.12F
MANCHESTER*      N/A     64   0   7 CALM      30.10S
MCMINNVILLE    CLEAR     68  66  94 SE3       30.15F
MOUNT PLEASANT   N/A     66  66 100 CALM      30.03F
SHELBYVILLE    CLEAR     66  66 100 SE3       30.14F
TULLAHOMA      CLEAR     64  64 100 SE6       30.16F
WINCHESTER     CLEAR     66  64  94 SE12      30.16F
$$


...KEY TO REMARKS...
VSB - VISIBILITY IN MILES
WCI - WIND CHILL INDEX
HX  - HEAT INDEX



USA.gov is the U.S. government's official web portal to all federal, state and local government web resources and services.